Year,Month,Day,Hour,Minute,Value (Times are PST for temperature in C)
2008,04,16,00,00,6.60
2008,04,16,00,01,6.60
2008,04,16,00,02,6.60
2008,04,16,00,03,6.60
2008,04,16,00,04,6.60
2008,04,16,00,05,6.60
2008,04,16,00,06,6.60
2008,04,16,00,07,6.60
2008,04,16,00,08,6.60
2008,04,16,00,09,6.60
2008,04,16,00,10,6.60
2008,04,16,00,11,6.60
2008,04,16,00,12,6.60
2008,04,16,00,13,6.60
2008,04,16,00,14,6.60
2008,04,16,00,15,6.60
2008,04,16,00,16,6.60
2008,04,16,00,17,6.60
2008,04,16,00,18,6.60
2008,04,16,00,19,6.60
2008,04,16,00,20,6.60
2008,04,16,00,21,6.60
2008,04,16,00,22,6.60
2008,04,16,00,23,6.60
2008,04,16,00,24,6.60
2008,04,16,00,25,6.60
2008,04,16,00,26,6.60
2008,04,16,00,27,6.60
2008,04,16,00,28,6.60
2008,04,16,00,29,6.60
2008,04,16,00,30,6.60
2008,04,16,00,31,6.50
2008,04,16,00,32,6.50
2008,04,16,00,33,6.50
2008,04,16,00,34,6.50
2008,04,16,00,35,6.50
2008,04,16,00,36,6.50
2008,04,16,00,37,6.50
2008,04,16,00,38,6.50
2008,04,16,00,39,6.50
2008,04,16,00,40,6.50
2008,04,16,00,41,6.50
2008,04,16,00,42,6.40
2008,04,16,00,43,6.50
2008,04,16,00,44,6.40
2008,04,16,00,45,6.50
2008,04,16,00,46,6.40
2008,04,16,00,47,6.40
2008,04,16,00,48,6.40
2008,04,16,00,49,6.40
2008,04,16,00,50,6.40
2008,04,16,00,51,6.40
2008,04,16,00,52,6.40
2008,04,16,00,53,6.40
2008,04,16,00,54,6.40
2008,04,16,00,55,6.40
2008,04,16,00,56,6.40
2008,04,16,00,57,6.40
2008,04,16,00,58,6.40
2008,04,16,00,59,6.40
2008,04,16,01,00,6.40
2008,04,16,01,01,6.40
2008,04,16,01,02,6.40
2008,04,16,01,03,6.40
2008,04,16,01,04,6.40
2008,04,16,01,05,6.40
2008,04,16,01,06,6.40
2008,04,16,01,07,6.40
2008,04,16,01,08,6.40
2008,04,16,01,09,6.40
2008,04,16,01,10,6.40
2008,04,16,01,11,6.40
2008,04,16,01,12,6.30
2008,04,16,01,13,6.30
2008,04,16,01,14,6.30
2008,04,16,01,15,6.30
2008,04,16,01,16,6.30
2008,04,16,01,17,6.30
2008,04,16,01,18,6.30
2008,04,16,01,19,6.30
2008,04,16,01,20,6.30
2008,04,16,01,21,6.30
2008,04,16,01,22,6.30
2008,04,16,01,23,6.30
2008,04,16,01,24,6.30
2008,04,16,01,25,6.30
2008,04,16,01,26,6.30
2008,04,16,01,27,6.30
2008,04,16,01,28,6.30
2008,04,16,01,29,6.30
2008,04,16,01,30,6.30
2008,04,16,01,31,6.30
2008,04,16,01,32,6.30
2008,04,16,01,33,6.30
2008,04,16,01,34,6.30
2008,04,16,01,35,6.30
2008,04,16,01,36,6.30
2008,04,16,01,37,6.30
2008,04,16,01,38,6.30
2008,04,16,01,39,6.30
2008,04,16,01,40,6.30
2008,04,16,01,41,6.30
2008,04,16,01,42,6.30
2008,04,16,01,43,6.30
2008,04,16,01,44,6.30
2008,04,16,01,45,6.30
2008,04,16,01,46,6.30
2008,04,16,01,47,6.30
2008,04,16,01,48,6.30
2008,04,16,01,49,6.30
2008,04,16,01,50,6.30
2008,04,16,01,51,6.30
2008,04,16,01,52,6.30
2008,04,16,01,53,6.30
2008,04,16,01,54,6.30
2008,04,16,01,55,6.40
2008,04,16,01,56,6.40
2008,04,16,01,57,6.40
2008,04,16,01,58,6.40
2008,04,16,01,59,6.40
2008,04,16,02,00,6.40
2008,04,16,02,01,6.40
2008,04,16,02,02,6.40
2008,04,16,02,03,6.40
2008,04,16,02,04,6.40
2008,04,16,02,05,6.40
2008,04,16,02,06,6.40
2008,04,16,02,07,6.40
2008,04,16,02,08,6.40
2008,04,16,02,09,6.30
2008,04,16,02,10,6.30
2008,04,16,02,11,6.30
2008,04,16,02,12,6.40
2008,04,16,02,13,6.40
2008,04,16,02,14,6.40
2008,04,16,02,15,6.40
2008,04,16,02,16,6.40
2008,04,16,02,17,6.40
2008,04,16,02,18,6.30
2008,04,16,02,19,6.40
2008,04,16,02,20,6.30
2008,04,16,02,21,6.40
2008,04,16,02,22,6.40
2008,04,16,02,23,6.40
2008,04,16,02,24,6.40
2008,04,16,02,25,6.40
2008,04,16,02,26,6.30
2008,04,16,02,27,6.30
2008,04,16,02,28,6.30
2008,04,16,02,29,6.30
2008,04,16,02,30,6.30
2008,04,16,02,31,6.30
2008,04,16,02,32,6.30
2008,04,16,02,33,6.30
2008,04,16,02,34,6.30
2008,04,16,02,35,6.30
2008,04,16,02,36,6.30
2008,04,16,02,37,6.30
2008,04,16,02,38,6.30
2008,04,16,02,39,6.30
2008,04,16,02,40,6.30
2008,04,16,02,41,6.30
2008,04,16,02,42,6.30
2008,04,16,02,43,6.30
2008,04,16,02,44,6.30
2008,04,16,02,45,6.30
2008,04,16,02,46,6.30
2008,04,16,02,47,6.30
2008,04,16,02,48,6.30
2008,04,16,02,49,6.30
2008,04,16,02,50,6.20
2008,04,16,02,51,6.20
2008,04,16,02,52,6.20
2008,04,16,02,53,6.20
2008,04,16,02,54,6.20
2008,04,16,02,55,6.20
2008,04,16,02,56,6.20
2008,04,16,02,57,6.20
2008,04,16,02,58,6.20
2008,04,16,02,59,6.20
2008,04,16,03,00,6.20
2008,04,16,03,01,6.20
2008,04,16,03,02,6.20
2008,04,16,03,03,6.20
2008,04,16,03,04,6.20
2008,04,16,03,05,6.20
2008,04,16,03,06,6.20
2008,04,16,03,07,6.20
2008,04,16,03,08,6.20
2008,04,16,03,09,6.20
2008,04,16,03,10,6.20
2008,04,16,03,11,6.20
2008,04,16,03,12,6.20
2008,04,16,03,13,6.20
2008,04,16,03,14,6.20
2008,04,16,03,15,6.20
2008,04,16,03,16,6.20
2008,04,16,03,17,6.20
2008,04,16,03,18,6.20
2008,04,16,03,19,6.20
2008,04,16,03,20,6.20
2008,04,16,03,21,6.20
2008,04,16,03,22,6.10
2008,04,16,03,23,6.10
2008,04,16,03,24,6.10
2008,04,16,03,25,6.10
2008,04,16,03,26,6.10
2008,04,16,03,27,6.10
2008,04,16,03,28,6.10
2008,04,16,03,29,6.10
2008,04,16,03,30,6.10
2008,04,16,03,31,6.10
2008,04,16,03,32,6.10
2008,04,16,03,33,6.10
2008,04,16,03,34,6.10
2008,04,16,03,35,6.10
2008,04,16,03,36,6.10
2008,04,16,03,37,6.10
2008,04,16,03,38,6.10
2008,04,16,03,39,6.10
2008,04,16,03,40,6.10
2008,04,16,03,41,6.10
2008,04,16,03,42,6.10
2008,04,16,03,43,6.10
2008,04,16,03,44,6.10
2008,04,16,03,45,6.10
2008,04,16,03,46,6.10
2008,04,16,03,47,6.10
2008,04,16,03,48,6.10
2008,04,16,03,49,6.10
2008,04,16,03,50,6.10
2008,04,16,03,51,6.10
2008,04,16,03,52,6.00
2008,04,16,03,53,6.00
2008,04,16,03,54,6.00
2008,04,16,03,55,6.00
2008,04,16,03,56,5.90
2008,04,16,03,57,5.90
2008,04,16,03,58,5.90
2008,04,16,03,59,5.90
2008,04,16,04,00,5.90
2008,04,16,04,01,5.90
2008,04,16,04,02,5.90
2008,04,16,04,03,5.90
2008,04,16,04,04,5.90
2008,04,16,04,05,5.90
2008,04,16,04,06,5.90
2008,04,16,04,07,5.90
2008,04,16,04,08,5.90
2008,04,16,04,09,5.90
2008,04,16,04,10,5.90
2008,04,16,04,11,5.90
2008,04,16,04,12,5.80
2008,04,16,04,13,5.80
2008,04,16,04,14,5.80
2008,04,16,04,15,5.80
2008,04,16,04,16,5.80
2008,04,16,04,17,5.80
2008,04,16,04,18,5.80
2008,04,16,04,19,5.80
2008,04,16,04,20,5.80
2008,04,16,04,21,5.80
2008,04,16,04,22,5.80
2008,04,16,04,23,5.80
2008,04,16,04,24,5.70
2008,04,16,04,25,5.70
2008,04,16,04,26,5.70
2008,04,16,04,27,5.70
2008,04,16,04,28,5.70
2008,04,16,04,29,5.70
2008,04,16,04,30,5.70
2008,04,16,04,31,5.70
2008,04,16,04,32,5.70
2008,04,16,04,33,5.70
2008,04,16,04,34,5.60
2008,04,16,04,35,5.60
2008,04,16,04,36,5.60
2008,04,16,04,37,5.60
2008,04,16,04,38,5.60
2008,04,16,04,39,5.60
2008,04,16,04,40,5.60
2008,04,16,04,41,5.60
2008,04,16,04,42,5.60
2008,04,16,04,43,5.60
2008,04,16,04,44,5.60
2008,04,16,04,45,5.60
2008,04,16,04,46,5.60
2008,04,16,04,47,5.50
2008,04,16,04,48,5.50
2008,04,16,04,49,5.50
2008,04,16,04,50,5.60
2008,04,16,04,51,5.50
2008,04,16,04,52,5.60
2008,04,16,04,53,5.60
2008,04,16,04,54,5.60
2008,04,16,04,55,5.60
2008,04,16,04,56,5.60
2008,04,16,04,57,5.60
2008,04,16,04,58,5.60
2008,04,16,04,59,5.60
2008,04,16,05,00,5.60
2008,04,16,05,01,5.60
2008,04,16,05,02,5.60
2008,04,16,05,03,5.60
2008,04,16,05,04,5.60
2008,04,16,05,05,5.60
2008,04,16,05,06,5.60
2008,04,16,05,07,5.60
2008,04,16,05,08,5.60
2008,04,16,05,09,5.60
2008,04,16,05,10,5.60
2008,04,16,05,11,5.60
2008,04,16,05,12,5.60
2008,04,16,05,13,5.60
2008,04,16,05,14,5.60
2008,04,16,05,15,5.60
2008,04,16,05,16,5.60
2008,04,16,05,17,5.60
2008,04,16,05,18,5.60
2008,04,16,05,19,5.60
2008,04,16,05,20,5.60
2008,04,16,05,21,5.60
2008,04,16,05,22,5.60
2008,04,16,05,23,5.60
2008,04,16,05,24,5.60
2008,04,16,05,25,5.60
2008,04,16,05,26,5.60
2008,04,16,05,27,5.60
2008,04,16,05,28,5.60
2008,04,16,05,29,5.60
2008,04,16,05,30,5.60
2008,04,16,05,31,5.60
2008,04,16,05,32,5.60
2008,04,16,05,33,5.60
2008,04,16,05,34,5.60
2008,04,16,05,35,5.60
2008,04,16,05,36,5.60
2008,04,16,05,37,5.60
2008,04,16,05,38,5.60
2008,04,16,05,39,5.60
2008,04,16,05,40,5.60
2008,04,16,05,41,5.60
2008,04,16,05,42,5.60
2008,04,16,05,43,5.70
2008,04,16,05,44,5.70
2008,04,16,05,45,5.70
2008,04,16,05,46,5.70
2008,04,16,05,47,5.70
2008,04,16,05,48,5.70
2008,04,16,05,49,5.70
2008,04,16,05,50,5.70
2008,04,16,05,51,5.70
2008,04,16,05,52,5.70
2008,04,16,05,53,5.70
2008,04,16,05,54,5.70
2008,04,16,05,55,5.70
2008,04,16,05,56,5.70
2008,04,16,05,57,5.70
2008,04,16,05,58,5.70
2008,04,16,05,59,5.70
2008,04,16,06,00,5.70
2008,04,16,06,01,5.70
2008,04,16,06,02,5.70
2008,04,16,06,03,5.70
2008,04,16,06,04,5.70
2008,04,16,06,05,5.70
2008,04,16,06,06,5.70
2008,04,16,06,07,5.60
2008,04,16,06,08,5.60
2008,04,16,06,09,5.50
2008,04,16,06,10,5.50
2008,04,16,06,11,5.40
2008,04,16,06,12,5.30
2008,04,16,06,13,5.30
2008,04,16,06,14,5.30
2008,04,16,06,15,5.30
2008,04,16,06,16,5.30
2008,04,16,06,17,5.30
2008,04,16,06,18,5.20
2008,04,16,06,19,5.20
2008,04,16,06,20,5.20
2008,04,16,06,21,5.20
2008,04,16,06,22,5.20
2008,04,16,06,23,5.10
2008,04,16,06,24,5.10
2008,04,16,06,25,5.10
2008,04,16,06,26,5.10
2008,04,16,06,27,5.10
2008,04,16,06,28,5.00
2008,04,16,06,29,5.00
2008,04,16,06,30,4.90
2008,04,16,06,31,4.90
2008,04,16,06,32,4.90
2008,04,16,06,33,4.80
2008,04,16,06,34,4.80
2008,04,16,06,35,4.70
2008,04,16,06,36,4.70
2008,04,16,06,37,4.70
2008,04,16,06,38,4.60
2008,04,16,06,39,4.60
2008,04,16,06,40,4.60
2008,04,16,06,41,4.50
2008,04,16,06,42,4.40
2008,04,16,06,43,4.40
2008,04,16,06,44,4.40
2008,04,16,06,45,4.30
2008,04,16,06,46,4.30
2008,04,16,06,47,4.30
2008,04,16,06,48,4.20
2008,04,16,06,49,4.20
2008,04,16,06,50,4.20
2008,04,16,06,51,4.20
2008,04,16,06,52,4.10
2008,04,16,06,53,4.10
2008,04,16,06,54,4.10
2008,04,16,06,55,4.10
2008,04,16,06,56,4.00
2008,04,16,06,57,4.00
2008,04,16,06,58,4.00
2008,04,16,06,59,4.00
2008,04,16,07,00,3.90
2008,04,16,07,01,3.90
2008,04,16,07,02,3.90
2008,04,16,07,03,3.90
2008,04,16,07,04,3.90
2008,04,16,07,05,3.90
2008,04,16,07,06,3.90
2008,04,16,07,07,3.90
2008,04,16,07,08,3.90
2008,04,16,07,09,3.90
2008,04,16,07,10,3.90
2008,04,16,07,11,3.90
2008,04,16,07,12,4.00
2008,04,16,07,13,4.00
2008,04,16,07,14,4.00
2008,04,16,07,15,4.00
2008,04,16,07,16,4.00
2008,04,16,07,17,4.00
2008,04,16,07,18,4.00
2008,04,16,07,19,4.00
2008,04,16,07,20,4.00
2008,04,16,07,21,4.00
2008,04,16,07,22,4.10
2008,04,16,07,23,4.10
2008,04,16,07,24,4.10
2008,04,16,07,25,4.10
2008,04,16,07,26,4.10
2008,04,16,07,27,4.10
2008,04,16,07,28,4.20
2008,04,16,07,29,4.20
2008,04,16,07,30,4.20
2008,04,16,07,31,4.30
2008,04,16,07,32,4.30
2008,04,16,07,33,4.30
2008,04,16,07,34,4.30
2008,04,16,07,35,4.40
2008,04,16,07,36,4.40
2008,04,16,07,37,4.40
2008,04,16,07,38,4.50
2008,04,16,07,39,4.50
2008,04,16,07,40,4.50
2008,04,16,07,41,4.60
2008,04,16,07,42,4.60
2008,04,16,07,43,4.60
2008,04,16,07,44,4.60
2008,04,16,07,45,4.60
2008,04,16,07,46,4.60
2008,04,16,07,47,4.70
2008,04,16,07,48,4.70
2008,04,16,07,49,4.70
2008,04,16,07,50,4.70
2008,04,16,07,51,4.80
2008,04,16,07,52,4.80
2008,04,16,07,53,4.80
2008,04,16,07,54,4.80
2008,04,16,07,55,4.80
2008,04,16,07,56,4.80
2008,04,16,07,57,4.90
2008,04,16,07,58,4.90
2008,04,16,07,59,4.90
2008,04,16,08,00,4.90
2008,04,16,08,01,5.00
2008,04,16,08,02,5.00
2008,04,16,08,03,5.00
2008,04,16,08,04,5.10
2008,04,16,08,05,5.10
2008,04,16,08,06,5.10
2008,04,16,08,07,5.10
2008,04,16,08,08,5.20
2008,04,16,08,09,5.20
2008,04,16,08,10,5.20
2008,04,16,08,11,5.20
2008,04,16,08,12,5.20
2008,04,16,08,13,5.30
2008,04,16,08,14,5.30
2008,04,16,08,15,5.30
2008,04,16,08,16,5.30
2008,04,16,08,17,5.30
2008,04,16,08,18,5.30
2008,04,16,08,19,5.40
2008,04,16,08,20,5.40
2008,04,16,08,21,5.40
2008,04,16,08,22,5.40
2008,04,16,08,23,5.40
2008,04,16,08,24,5.50
2008,04,16,08,25,5.50
2008,04,16,08,26,5.50
2008,04,16,08,27,5.60
2008,04,16,08,28,5.60
2008,04,16,08,29,5.60
2008,04,16,08,30,5.70
2008,04,16,08,31,5.70
2008,04,16,08,32,5.70
2008,04,16,08,33,5.70
2008,04,16,08,34,5.80
2008,04,16,08,35,5.80
2008,04,16,08,36,5.80
2008,04,16,08,37,5.80
2008,04,16,08,38,5.80
2008,04,16,08,39,5.80
2008,04,16,08,40,5.90
2008,04,16,08,41,5.90
2008,04,16,08,42,5.90
2008,04,16,08,43,5.90
2008,04,16,08,44,6.00
2008,04,16,08,45,6.00
2008,04,16,08,46,6.10
2008,04,16,08,47,6.10
2008,04,16,08,48,6.10
2008,04,16,08,49,6.20
2008,04,16,08,50,6.20
2008,04,16,08,51,6.20
2008,04,16,08,52,6.30
2008,04,16,08,53,6.30
2008,04,16,08,54,6.30
2008,04,16,08,55,6.30
2008,04,16,08,56,6.30
2008,04,16,08,57,6.40
2008,04,16,08,58,6.40
2008,04,16,08,59,6.40
2008,04,16,09,00,6.40
2008,04,16,09,01,6.50
2008,04,16,09,02,6.50
2008,04,16,09,03,6.60
2008,04,16,09,04,6.60
2008,04,16,09,05,6.70
2008,04,16,09,06,6.70
2008,04,16,09,07,6.70
2008,04,16,09,08,6.70
2008,04,16,09,09,6.80
2008,04,16,09,10,6.80
2008,04,16,09,11,6.80
2008,04,16,09,12,6.80
2008,04,16,09,13,6.90
2008,04,16,09,14,6.90
2008,04,16,09,15,6.90
2008,04,16,09,16,7.00
2008,04,16,09,17,7.00
2008,04,16,09,18,7.00
2008,04,16,09,19,7.10
2008,04,16,09,20,7.20
2008,04,16,09,21,7.20
2008,04,16,09,22,7.20
2008,04,16,09,23,7.30
2008,04,16,09,24,7.40
2008,04,16,09,25,7.50
2008,04,16,09,26,7.60
2008,04,16,09,27,7.70
2008,04,16,09,28,7.70
2008,04,16,09,29,7.80
2008,04,16,09,30,7.80
2008,04,16,09,31,7.90
2008,04,16,09,32,7.90
2008,04,16,09,33,7.90
2008,04,16,09,34,7.90
2008,04,16,09,35,8.00
2008,04,16,09,36,8.00
2008,04,16,09,37,8.00
2008,04,16,09,38,8.10
2008,04,16,09,39,8.10
2008,04,16,09,40,8.20
2008,04,16,09,41,8.20
2008,04,16,09,42,8.30
2008,04,16,09,43,8.30
2008,04,16,09,44,8.40
2008,04,16,09,45,8.40
2008,04,16,09,46,8.50
2008,04,16,09,47,8.60
2008,04,16,09,48,8.70
2008,04,16,09,49,8.70
2008,04,16,09,50,8.80
2008,04,16,09,51,8.80
2008,04,16,09,52,8.90
2008,04,16,09,53,8.90
2008,04,16,09,54,9.00
2008,04,16,09,55,9.10
2008,04,16,09,56,9.10
2008,04,16,09,57,9.20
2008,04,16,09,58,9.20
2008,04,16,09,59,9.10
2008,04,16,10,00,9.20
2008,04,16,10,01,9.30
2008,04,16,10,02,9.40
2008,04,16,10,03,9.60
2008,04,16,10,04,9.80
2008,04,16,10,05,9.90
2008,04,16,10,06,9.90
2008,04,16,10,07,9.90
2008,04,16,10,08,9.90
2008,04,16,10,09,9.90
2008,04,16,10,10,9.90
2008,04,16,10,11,9.80
2008,04,16,10,12,9.70
2008,04,16,10,13,9.60
2008,04,16,10,14,9.50
2008,04,16,10,15,9.50
2008,04,16,10,16,9.50
2008,04,16,10,17,9.50
2008,04,16,10,18,9.50
2008,04,16,10,19,9.50
2008,04,16,10,20,9.50
2008,04,16,10,21,9.60
2008,04,16,10,22,9.60
2008,04,16,10,23,9.60
2008,04,16,10,24,9.60
2008,04,16,10,25,9.70
2008,04,16,10,26,9.80
2008,04,16,10,27,10.00
2008,04,16,10,28,10.10
2008,04,16,10,29,10.10
2008,04,16,10,30,10.10
2008,04,16,10,31,10.10
2008,04,16,10,32,10.10
2008,04,16,10,33,10.20
2008,04,16,10,34,10.20
2008,04,16,10,35,10.30
2008,04,16,10,36,10.30
2008,04,16,10,37,10.30
2008,04,16,10,38,10.30
2008,04,16,10,39,10.30
2008,04,16,10,40,10.40
2008,04,16,10,41,10.40
2008,04,16,10,42,10.50
2008,04,16,10,43,10.60
2008,04,16,10,44,10.70
2008,04,16,10,45,10.60
2008,04,16,10,46,10.60
2008,04,16,10,47,10.60
2008,04,16,10,48,10.60
2008,04,16,10,49,10.60
2008,04,16,10,50,10.50
2008,04,16,10,51,10.50
2008,04,16,10,52,10.50
2008,04,16,10,53,10.40
2008,04,16,10,54,10.30
2008,04,16,10,55,10.30
2008,04,16,10,56,10.30
2008,04,16,10,57,10.40
2008,04,16,10,58,10.40
2008,04,16,10,59,10.40
2008,04,16,11,00,10.40
2008,04,16,11,01,10.30
2008,04,16,11,02,10.10
2008,04,16,11,03,10.10
2008,04,16,11,04,10.10
2008,04,16,11,05,10.10
2008,04,16,11,06,10.20
2008,04,16,11,07,10.20
2008,04,16,11,08,10.20
2008,04,16,11,09,10.30
2008,04,16,11,10,10.30
2008,04,16,11,11,10.30
2008,04,16,11,12,10.30
2008,04,16,11,13,10.30
2008,04,16,11,14,10.30
2008,04,16,11,15,10.40
2008,04,16,11,16,10.40
2008,04,16,11,17,10.50
2008,04,16,11,18,10.50
2008,04,16,11,19,10.60
2008,04,16,11,20,10.70
2008,04,16,11,21,10.80
2008,04,16,11,22,10.80
2008,04,16,11,23,10.80
2008,04,16,11,24,10.80
2008,04,16,11,25,10.80
2008,04,16,11,26,10.70
2008,04,16,11,27,10.60
2008,04,16,11,28,10.50
2008,04,16,11,29,10.30
2008,04,16,11,30,10.20
2008,04,16,11,31,10.10
2008,04,16,11,32,10.00
2008,04,16,11,33,9.90
2008,04,16,11,34,9.90
2008,04,16,11,35,9.90
2008,04,16,11,36,9.90
2008,04,16,11,37,10.00
2008,04,16,11,38,10.00
2008,04,16,11,39,10.10
2008,04,16,11,40,10.10
2008,04,16,11,41,10.20
2008,04,16,11,42,10.30
2008,04,16,11,43,10.40
2008,04,16,11,44,10.60
2008,04,16,11,45,10.60
2008,04,16,11,46,10.70
2008,04,16,11,47,10.70
2008,04,16,11,48,10.60
2008,04,16,11,49,10.70
2008,04,16,11,50,10.70
2008,04,16,11,51,10.70
2008,04,16,11,52,10.70
2008,04,16,11,53,10.60
2008,04,16,11,54,10.60
2008,04,16,11,55,10.60
2008,04,16,11,56,10.60
2008,04,16,11,57,10.60
2008,04,16,11,58,10.60
2008,04,16,11,59,10.60
2008,04,16,12,00,10.70
2008,04,16,12,01,10.70
2008,04,16,12,02,10.70
2008,04,16,12,03,10.70
2008,04,16,12,04,10.70
2008,04,16,12,05,10.60
2008,04,16,12,06,10.50
2008,04,16,12,07,10.50
2008,04,16,12,08,10.50
2008,04,16,12,09,10.60
2008,04,16,12,10,10.70
2008,04,16,12,11,10.80
2008,04,16,12,12,10.70
2008,04,16,12,13,10.60
2008,04,16,12,14,10.50
2008,04,16,12,15,10.30
2008,04,16,12,16,10.30
2008,04,16,12,17,10.30
2008,04,16,12,18,10.30
2008,04,16,12,19,10.40
2008,04,16,12,20,10.40
2008,04,16,12,21,10.40
2008,04,16,12,22,10.30
2008,04,16,12,23,10.30
2008,04,16,12,24,10.10
2008,04,16,12,25,10.10
2008,04,16,12,26,10.00
2008,04,16,12,27,10.10
2008,04,16,12,28,10.30
2008,04,16,12,29,10.40
2008,04,16,12,30,10.50
2008,04,16,12,31,10.60
2008,04,16,12,32,10.60
2008,04,16,12,33,10.70
2008,04,16,12,34,10.70
2008,04,16,12,35,10.90
2008,04,16,12,36,10.90
2008,04,16,12,37,10.90
2008,04,16,12,38,10.90
2008,04,16,12,39,10.90
2008,04,16,12,40,10.90
2008,04,16,12,41,10.90
2008,04,16,12,42,10.80
2008,04,16,12,43,10.70
2008,04,16,12,44,10.70
2008,04,16,12,45,10.80
2008,04,16,12,46,10.80
2008,04,16,12,47,10.80
2008,04,16,12,48,10.80
2008,04,16,12,49,10.70
2008,04,16,12,50,10.70
2008,04,16,12,51,10.60
2008,04,16,12,52,10.60
2008,04,16,12,53,10.60
2008,04,16,12,54,10.60
2008,04,16,12,55,10.60
2008,04,16,12,56,10.60
2008,04,16,12,57,10.60
2008,04,16,12,58,10.70
2008,04,16,12,59,10.80
2008,04,16,13,00,10.70
2008,04,16,13,01,10.60
2008,04,16,13,02,10.60
2008,04,16,13,03,10.70
2008,04,16,13,04,10.80
2008,04,16,13,05,10.90
2008,04,16,13,06,10.90
2008,04,16,13,07,11.10
2008,04,16,13,08,11.20
2008,04,16,13,09,11.20
2008,04,16,13,10,11.20
2008,04,16,13,11,11.20
2008,04,16,13,12,11.20
2008,04,16,13,13,11.10
2008,04,16,13,14,11.10
2008,04,16,13,15,11.10
2008,04,16,13,16,11.10
2008,04,16,13,17,11.10
2008,04,16,13,18,11.10
2008,04,16,13,19,11.10
2008,04,16,13,20,11.10
2008,04,16,13,21,11.10
2008,04,16,13,22,11.20
2008,04,16,13,23,11.20
2008,04,16,13,24,11.40
2008,04,16,13,25,11.60
2008,04,16,13,26,11.60
2008,04,16,13,27,11.70
2008,04,16,13,28,11.80
2008,04,16,13,29,11.80
2008,04,16,13,30,11.90
2008,04,16,13,31,11.90
2008,04,16,13,32,12.00
2008,04,16,13,33,12.00
2008,04,16,13,34,12.10
2008,04,16,13,35,12.10
2008,04,16,13,36,12.10
2008,04,16,13,37,12.10
2008,04,16,13,38,12.20
2008,04,16,13,39,12.40
2008,04,16,13,40,12.60
2008,04,16,13,41,12.70
2008,04,16,13,42,12.70
2008,04,16,13,43,12.70
2008,04,16,13,44,12.60
2008,04,16,13,45,12.40
2008,04,16,13,46,12.30
2008,04,16,13,47,12.20
2008,04,16,13,48,12.20
2008,04,16,13,49,12.10
2008,04,16,13,50,12.00
2008,04,16,13,51,11.90
2008,04,16,13,52,11.90
2008,04,16,13,53,11.80
2008,04,16,13,54,11.80
2008,04,16,13,55,11.80
2008,04,16,13,56,11.80
2008,04,16,13,57,11.80
2008,04,16,13,58,11.70
2008,04,16,13,59,11.60
2008,04,16,14,00,11.60
2008,04,16,14,01,11.60
2008,04,16,14,02,11.70
2008,04,16,14,03,11.90
2008,04,16,14,04,11.90
2008,04,16,14,05,11.90
2008,04,16,14,06,11.80
2008,04,16,14,07,11.80
2008,04,16,14,08,11.80
2008,04,16,14,09,11.70
2008,04,16,14,10,11.60
2008,04,16,14,11,11.70
2008,04,16,14,12,11.70
2008,04,16,14,13,11.70
2008,04,16,14,14,11.80
2008,04,16,14,15,11.80
2008,04,16,14,16,11.80
2008,04,16,14,17,11.70
2008,04,16,14,18,11.60
2008,04,16,14,19,11.60
2008,04,16,14,20,11.60
2008,04,16,14,21,11.70
2008,04,16,14,22,11.80
2008,04,16,14,23,11.90
2008,04,16,14,24,12.10
2008,04,16,14,25,12.20
2008,04,16,14,26,12.20
2008,04,16,14,27,12.10
2008,04,16,14,28,12.10
2008,04,16,14,29,12.00
2008,04,16,14,30,12.00
2008,04,16,14,31,12.10
2008,04,16,14,32,12.10
2008,04,16,14,33,12.10
2008,04,16,14,34,12.10
2008,04,16,14,35,12.00
2008,04,16,14,36,12.00
2008,04,16,14,37,12.00
2008,04,16,14,38,12.00
2008,04,16,14,39,12.10
2008,04,16,14,40,12.00
2008,04,16,14,41,12.00
2008,04,16,14,42,12.00
2008,04,16,14,43,12.00
2008,04,16,14,44,12.00
2008,04,16,14,45,12.00
2008,04,16,14,46,12.00
2008,04,16,14,47,12.00
2008,04,16,14,48,12.10
2008,04,16,14,49,12.10
2008,04,16,14,50,12.10
2008,04,16,14,51,12.10
2008,04,16,14,52,12.10
2008,04,16,14,53,12.10
2008,04,16,14,54,12.20
2008,04,16,14,55,12.10
2008,04,16,14,56,12.10
2008,04,16,14,57,12.10
2008,04,16,14,58,12.10
2008,04,16,14,59,12.10
2008,04,16,15,00,12.10
2008,04,16,15,01,12.10
2008,04,16,15,02,12.10
2008,04,16,15,03,12.10
2008,04,16,15,04,12.00
2008,04,16,15,05,12.00
2008,04,16,15,06,12.10
2008,04,16,15,07,12.10
2008,04,16,15,08,12.10
2008,04,16,15,09,12.10
2008,04,16,15,10,12.10
2008,04,16,15,11,12.10
2008,04,16,15,12,12.20
2008,04,16,15,13,12.20
2008,04,16,15,14,12.30
2008,04,16,15,15,12.20
2008,04,16,15,16,12.30
2008,04,16,15,17,12.20
2008,04,16,15,18,12.20
2008,04,16,15,19,12.10
2008,04,16,15,20,12.10
2008,04,16,15,21,12.20
2008,04,16,15,22,12.30
2008,04,16,15,23,12.40
2008,04,16,15,24,12.40
2008,04,16,15,25,12.40
2008,04,16,15,26,12.50
2008,04,16,15,27,12.50
2008,04,16,15,28,12.50
2008,04,16,15,29,12.50
2008,04,16,15,30,12.60
2008,04,16,15,31,12.60
2008,04,16,15,32,12.60
2008,04,16,15,33,12.60
2008,04,16,15,34,12.60
2008,04,16,15,35,12.60
2008,04,16,15,36,12.60
2008,04,16,15,37,12.70
2008,04,16,15,38,12.70
2008,04,16,15,39,12.70
2008,04,16,15,40,12.70
2008,04,16,15,41,12.70
2008,04,16,15,42,12.80
2008,04,16,15,43,12.80
2008,04,16,15,44,12.80
2008,04,16,15,45,12.80
2008,04,16,15,46,12.70
2008,04,16,15,47,12.80
2008,04,16,15,48,12.80
2008,04,16,15,49,12.80
2008,04,16,15,50,12.80
2008,04,16,15,51,12.80
2008,04,16,15,52,12.70
2008,04,16,15,53,12.70
2008,04,16,15,54,12.70
2008,04,16,15,55,12.70
2008,04,16,15,56,12.70
2008,04,16,15,57,12.70
2008,04,16,15,58,12.70
2008,04,16,15,59,12.80
2008,04,16,16,00,12.90
2008,04,16,16,01,12.90
2008,04,16,16,02,12.90
2008,04,16,16,03,12.80
2008,04,16,16,04,12.80
2008,04,16,16,05,12.80
2008,04,16,16,06,12.80
2008,04,16,16,07,12.80
2008,04,16,16,08,12.90
2008,04,16,16,09,12.90
2008,04,16,16,10,12.90
2008,04,16,16,11,12.90
2008,04,16,16,12,13.00
2008,04,16,16,13,13.00
2008,04,16,16,14,13.10
2008,04,16,16,15,13.10
2008,04,16,16,16,13.10
2008,04,16,16,17,13.10
2008,04,16,16,18,13.00
2008,04,16,16,19,13.00
2008,04,16,16,20,13.00
2008,04,16,16,21,13.10
2008,04,16,16,22,13.10
2008,04,16,16,23,13.10
2008,04,16,16,24,13.10
2008,04,16,16,25,13.10
2008,04,16,16,26,13.10
2008,04,16,16,27,13.20
2008,04,16,16,28,13.20
2008,04,16,16,29,13.20
2008,04,16,16,30,13.10
2008,04,16,16,31,13.10
2008,04,16,16,32,13.10
2008,04,16,16,33,13.20
2008,04,16,16,34,13.30
2008,04,16,16,35,13.30
2008,04,16,16,36,13.40
2008,04,16,16,37,13.50
2008,04,16,16,38,13.60
2008,04,16,16,39,13.70
2008,04,16,16,40,13.70
2008,04,16,16,41,13.80
2008,04,16,16,42,13.80
2008,04,16,16,43,13.80
2008,04,16,16,44,13.70
2008,04,16,16,45,13.70
2008,04,16,16,46,13.60
2008,04,16,16,47,13.50
2008,04,16,16,48,13.40
2008,04,16,16,49,13.40
2008,04,16,16,50,13.40
2008,04,16,16,51,13.30
2008,04,16,16,52,13.30
2008,04,16,16,53,13.20
2008,04,16,16,54,13.20
2008,04,16,16,55,13.20
2008,04,16,16,56,13.20
2008,04,16,16,57,13.20
2008,04,16,16,58,13.20
2008,04,16,16,59,13.20
2008,04,16,17,00,13.30
2008,04,16,17,01,13.30
2008,04,16,17,02,13.30
2008,04,16,17,03,13.30
2008,04,16,17,04,13.30
2008,04,16,17,05,13.40
2008,04,16,17,06,13.40
2008,04,16,17,07,13.40
2008,04,16,17,08,13.40
2008,04,16,17,09,13.40
2008,04,16,17,10,13.30
2008,04,16,17,11,13.30
2008,04,16,17,12,13.30
2008,04,16,17,13,13.30
2008,04,16,17,14,13.30
2008,04,16,17,15,13.30
2008,04,16,17,16,13.20
2008,04,16,17,17,13.10
2008,04,16,17,18,13.10
2008,04,16,17,19,13.00
2008,04,16,17,20,13.00
2008,04,16,17,21,13.00
2008,04,16,17,22,12.90
2008,04,16,17,23,12.90
2008,04,16,17,24,12.80
2008,04,16,17,25,12.80
2008,04,16,17,26,12.80
2008,04,16,17,27,12.80
2008,04,16,17,28,12.70
2008,04,16,17,29,12.80
2008,04,16,17,30,12.80
2008,04,16,17,31,12.80
2008,04,16,17,32,12.80
2008,04,16,17,33,12.90
2008,04,16,17,34,12.90
2008,04,16,17,35,12.90
2008,04,16,17,36,12.90
2008,04,16,17,37,12.80
2008,04,16,17,38,12.80
2008,04,16,17,39,12.80
2008,04,16,17,40,12.70
2008,04,16,17,41,12.70
2008,04,16,17,42,12.70
2008,04,16,17,43,12.70
2008,04,16,17,44,12.70
2008,04,16,17,45,12.70
2008,04,16,17,46,12.70